全球星 M061星 (GLOBALSTAR M061)

导读 | 豆包AI

GLOBALSTAR M061是全球星(Globalstar)星座系统中的卫星,于1999年11月22日发射。全球星系统由美国企业发起,是提供全球移动通信服务的低轨卫星星座,该卫星运行于约1414千米轨道,支持话音、数据、定位等业务,为偏远地区、海洋等区域提供通信连接,助力实现南北纬70°范围内的通信覆盖,支撑全球漫游与应急通信需求。

基本信息
目录编号:
25964
目录名称:
GLOBALSTAR M061
国际标识:
1999-062D
轨道中心:
EARTH
卫星名称:
全球星 M061星
卫星全名:
全球星 M061星 (GLOBALSTAR M061)
卫星状态:
在轨 (已飞行9609 天)
发射日期:
1999-11-22 UTC
国别 :
(GLOB)
星等 :
--
轨道信息
数据来源 国际轨道数据 AOE轨道数据
星历时间 2026-03-13T16:55:44+0800
18小时前
查看轨道信息
2026-03-12T04:00:00+0800
2天前
查看轨道信息
半长轴 8164.674km 8164.672km
偏心率 0.0006846 0.0006642
轨道倾角 51.978° 51.977°
近地点辐角 111.713° 103.078°
升交点赤经 219.265° 223.242°
平近点角 263.019° 230.191°
近地点 1780.947km 1781.112km
远地点 1792.127km 1791.958km
周期 122.368分钟 122.368分钟
每日圈数 11.767779 11.767784
详细信息
固有亮度:
5
最大亮度:
7.9
平衡模式:
三轴稳定
覆盖范围:
全球
运营商:
全球星公司
运营商所在国:
美国
使用方式:
暂无
卫星简介
全球星星座由48颗卫星加8颗备份星组成。这些卫星分布在8个倾角为52度的圆形轨道平面上,每个轨道平面6颗卫星,另有1 颗备用星。轨道高度约为1414km,传输时延和处理时延小于300ms,整个系统的覆盖区为南北纬70度以内的地区。该卫星已退役。
2D轨道图
3D轨道图
轨道高度分析图
轨道倾角分析图
轨道综合分析图
查看轨道综合分析图